Date,TemperatureHighF,TemperatureAvgF,TemperatureLowF,DewpointHighF,DewpointAvgF,DewpointLowF,HumidityHigh,HumidityAvg,HumidityLow,PressureMaxIn,PressureMinIn,WindSpeedMaxMPH,WindSpeedAvgMPH,GustSpeedMaxMPH,PrecipitationSumIn
2013-4-1,58.0,46.0,36.0,45.0,40.6,34.0,97,83,56,29.69,29.58,10,4,28,0.13
2013-4-2,35.0,30.6,27.0,16.0,13.9,11.0,62,50,37,29.91,29.86,10,5,22,0.01
2013-4-3,28.0,27.7,27.0,17.0,16.3,15.0,64,62,59,30.01,29.99,6,5,13,0.00
2013-4-4,41.0,38.9,37.0,29.0,27.9,27.0,73,65,58,30.11,30.06,5,2,9,0.00
2013-4-5,42.0,36.9,35.0,31.0,27.5,22.0,84,70,45,30.06,29.87,7,2,19,0.00
2013-4-6,48.0,38.0,30.0,25.0,15.7,9.0,70,43,23,30.29,29.95,7,2,22,0.00
2013-4-7,53.0,41.5,29.0,42.0,30.8,18.0,92,68,44,30.29,30.00,10,3,26,0.00
2013-4-8,66.0,52.4,39.0,44.0,40.3,37.0,96,67,38,30.09,29.97,4,1,11,0.01
2013-4-9,69.0,59.7,47.0,53.0,47.1,43.0,94,65,43,30.03,29.90,11,3,22,0.01
2013-4-10,63.0,54.9,46.0,55.0,50.2,45.0,97,85,69,29.99,29.85,4,1,9,0.54
2013-4-11,53.0,48.0,39.0,52.0,42.6,30.0,97,83,48,30.09,29.83,8,3,14,0.27
2013-4-12,39.0,36.3,34.0,36.0,34.2,32.0,97,92,77,30.11,29.76,10,6,19,0.41
2013-4-13,51.0,42.3,34.0,39.0,36.0,33.0,97,80,59,29.94,29.75,9,2,15,0.08
2013-4-14,48.0,41.2,34.0,38.0,32.1,27.0,95,72,49,30.22,29.94,7,2,18,0.00
2013-4-15,58.0,43.8,31.0,37.0,31.9,27.0,90,65,44,30.38,30.22,6,2,15,0.00
2013-4-16,63.0,49.6,36.0,52.0,43.8,31.0,93,81,61,30.38,30.12,9,3,23,0.01
2013-4-17,64.0,53.8,45.0,53.0,40.2,30.0,96,63,38,30.33,30.12,7,2,15,0.03
2013-4-18,58.0,49.4,37.0,47.0,37.0,31.0,89,64,42,30.38,30.14,9,3,21,0.02
2013-4-19,70.0,59.8,49.0,63.0,57.4,46.0,98,93,78,30.14,29.68,12,4,25,0.19
2013-4-20,62.0,47.8,37.0,61.0,37.4,26.0,97,70,38,30.28,29.67,8,4,20,0.49
2013-4-21,53.0,40.5,30.0,39.0,23.3,18.0,73,52,30,30.63,30.27,8,3,17,0.01
2013-4-22,55.0,44.0,32.0,33.0,29.7,26.0,89,60,37,30.69,30.52,9,3,17,0.00
2013-4-23,43.0,38.6,34.0,39.0,34.4,29.0,92,85,76,30.53,30.11,9,6,20,0.00
2013-4-24,73.0,53.8,41.0,51.0,44.7,39.0,94,75,44,30.11,29.83,8,3,17,0.00
2013-4-25,58.0,50.3,40.0,50.0,36.4,29.0,97,62,33,30.28,29.85,7,3,18,0.01
2013-4-26,62.0,48.6,32.0,37.0,32.4,29.0,91,57,32,30.43,30.28,6,2,14,0.01
2013-4-27,67.0,52.5,35.0,39.0,33.7,29.0,80,51,26,30.43,30.29,7,2,13,0.00
2013-4-28,69.0,54.8,38.0,45.0,36.4,-99.9,83,54,38,30.34,30.22,9,2,15,0.00
2013-4-29,57.0,52.6,47.0,47.0,40.5,31.0,86,64,48,30.27,30.23,7,2,15,0.00
2013-4-30,69.0,55.3,42.0,45.0,35.1,25.0,92,52,24,30.36,30.25,6,2,12,0.00